sat.trackr.live / text

‹ back to catalog

STARLINK-33801

NORAD 63963 · 2025-099M

PAYLOAD ACTIVE UNKNOWN

§ Identity

Operator
Country
US
Launch date
2025-05-13
Launch site
AFETR
Launch vehicle
Mass (kg)
RCS (m²)

Purposes: comms

External: N2YO · Heavens-Above · Gunter

§ Orbital elements

Epoch: 2026-05-25T03:56:19.435776Z

Period
94.27 min
Inclination
42.9988°
Eccentricity
0.0000804
Mean motion
15.27598723 rev/d
Perigee alt
482.4 km
Apogee alt
483.5 km
Semi-major
6,861.1 km
B*
6.7697e-4
RAAN
104.1918°
Arg perigee
257.2104°
Mean anomaly
102.8658°
Rev number
5,903

§ Raw data

STARLINK-338011 63963U 25099M   26145.16411384  .00018424  00000+0  67697-3 0  99942 63963  42.9988 104.1918 0000804 257.2104 102.8658 15.27598723 59032

JSON: /api/v1/satellites/63963 · /tle

For live sub-satellite position, see the globe view (requires WebGL).

§ Visibility from observer

Set your observer location to see the next 7 days of passes ≥ 10°. The values pass through the URL so the page stays shareable.

No JS? Fill the form by hand. The geolocation button needs JavaScript.